Regional Weather Roundup
Issued by NWS

Home | Current Version | Previous Version | Graphics & Text | Print | Product List | Glossary On
Versions: 1 2 3 4 5 6 7 8 9 10 11 12 13 14 15 16 17 18 19 20 21 22 23 24 25 26 27 28 29 30 31 32 33 34 35 36 37 38 39 40 41 42 43 44 45 46 47 48 49 50
000
ASUS43 KIND 262009
RWRIN

WEATHER ROUNDUP FOR INDIANA
NATIONAL WEATHER SERVICE INDIANAPOLIS IN
400 PM EDT TUE AUG 26 2014

NOTE: "FAIR" INDICATES FEW OR NO CLOUDS BELOW 12,000 FEET WITH NO
SIGNIFICANT WEATHER AND/OR OBSTRUCTIONS TO VISIBILITY.

* - STATION DOES NOT REPORT WEATHER SUCH AS PRECIPITATION OR FOG.

+ - STATION NOT QUALITY CONTROLLED BY THE NATIONAL WEATHER SERVICE.
    USE DATA WITH CAUTION...ESPECIALLY DEWPOINT AND RELATIVE
    HUMIDITY OBSERVATIONS.

INZ001>003-010>013-019-020-262100-
NORTHWEST INDIANA

CITY           SKY/WX    TMP DP  RH WIND       PRES   REMARKS
GARY /AIRPORT/ PTSUNNY   75  70  83 S7        30.11F
KNOX *+        CLOUDY    69  66  90 SE3       30.10F
LA PORTE +     CLOUDY    69  69 100 E5        30.10F
MICHIGAN CITY+ CLOUDY    72  70  94 SE3       30.08F
MONTICELLO +   LGT RAIN  70  67  89 CALM      30.10F
RENSSELAER +   CLOUDY    72  72 100 SE3       30.10F
VALPARAISO     CLOUDY    71  69  93 E6        30.09F

$$

LMZ046-743>745-262100-
SOUTHERN LAKE MICHIGAN

STATION/POSITION TIME  TEMP WIND        PRES
                       AIR  DIR/SP/G
                 (UTC) (F)  (DEG/KT/KT) (MB)

$$

INZ004-005-014>016-021>024-262100-
NORTH CENTRAL INDIANA

CITY           SKY/WX    TMP DP  RH WIND       PRES   REMARKS
ELKHART        CLOUDY    72  70  94 S7        30.10  FOG
GOSHEN         TSTM      72  69  90 N6        30.11F FOG
LOGANSPORT +   CLOUDY    72  66  83 W6        30.11F
PERU/GRISSOM   CLOUDY    76  71  84 SW10      30.11F
ROCHESTER +    CLOUDY    73  70  88 CALM      30.12S
SOUTH BEND     CLOUDY    72  69  90 SE7       30.10S
WARSAW +       LGT RAIN  70  70 100 N8        30.11F

$$

INZ006>009-017-018-025>027-262100-
NORTHEAST INDIANA

CITY           SKY/WX    TMP DP  RH WIND       PRES   REMARKS
ANGOLA *+      SUNNY     75  70  83 SW3       30.11F
AUBURN +       CLOUDY    79  66  65 NW6       30.14F
FORT WAYNE     CLOUDY    79  69  71 NW13G23   30.14R
HUNTINGTON +   CLOUDY    77  69  77 N6        30.14S

$$

INZ028-029-035-036-043>045-051>053-262100-
WEST CENTRAL INDIANA

CITY           SKY/WX    TMP DP  RH WIND       PRES   REMARKS
GREENCASTLE +  SUNNY     88  73  62 CALM      30.10F HX  96
LAFAYETTE      LGT RAIN  70  69  97 SE8       30.12F
TERRE HAUTE    SUNNY     90  74  59 S6        30.08F HX  99

$$

INZ030>032-037>040-046>048-054>057-064-065-262100-
CENTRAL INDIANA

CITY           SKY/WX    TMP DP  RH WIND       PRES   REMARKS
ANDERSON       MOSUNNY   86  64  48 N6        30.12S
CP ATTERBURY + CLOUDY    90  70  51 N5        30.10S HX  95
COLUMBUS       MOSUNNY   90  72  55 N6        30.09F HX  96
FRANKFORT +    TSTM     N/A N/A N/A NW16G29   30.20R VSB 3/4
INDIANAPOLIS   PTSUNNY   92  67  43 VRB5      30.09F HX  95
-EAGLE CREEK   SUNNY     91  70  49 NW5       30.09F HX  96
KOKOMO *+      PTSUNNY   81  70  69 N7        30.12R
MARION +       PTSUNNY   78  66  65 N12G17    30.14R
MT COMFORT *+  SUNNY     91  64  40 N5        30.11F
SHELBYVILLE    SUNNY     91  73  55 N5        30.10S HX  99
ZIONSVILLE +   MOSUNNY   88  73  60 N13       30.12S HX  96

$$

INZ033-034-041-042-049-050-058-059-262100-
EAST CENTRAL INDIANA

CITY           SKY/WX    TMP DP  RH WIND       PRES   REMARKS
MUNCIE         MOSUNNY   80  70  71 N7        30.13R

$$

INZ060-061-067>069-081>083-085>088-262100-
SOUTHWEST INDIANA

CITY           SKY/WX    TMP DP  RH WIND       PRES   REMARKS
EVANSVILLE     PTSUNNY   93  72  50 CALM      30.07F HX 101
WASHINGTON +   SUNNY     90  74  58 N3        30.07S HX 100

$$

INZ062-063-066-070>080-084-089>092-262100-
SOUTH CENTRAL AND SOUTHEAST INDIANA

CITY           SKY/WX    TMP DP  RH WIND       PRES   REMARKS
BLOOMINGTON    MOSUNNY   91  72  53 CALM      30.09F HX  98
NORTH VERNON + MOSUNNY   91  70  49 CALM      30.10  HX  97

$$




USA.gov is the U.S. government's official web portal to all federal, state and local government web resources and services.